Weather History for Ashtabula, OH

Change the Weather History Date:

Friday, November 1, 2013

  Actual Average (KYNG) Record (KYNG)
Temperature  
Mean Temperature 55 °F 46 °F  
Max Temperature 62 °F 55 °F 79 °F (1950)
Min Temperature 48 °F 38 °F 23 °F (1954)
Degree Days  
Heating Degree Days 10 19  
Month to date heating degree days 19  
Since 1 July heating degree days 640  
Cooling Degree Days 0 0  
Month to date cooling degree days 0  
Year to date cooling degree days 544  
Growing Degree Days 5 (Base 50)    
Moisture  
Dew Point 45 °F    
Average Humidity 71    
Maximum Humidity 88    
Minimum Humidity 61    
Precipitation  
Precipitation 0.12 in 0.10 in 0.55 in (1969)
Month to date precipitation 0.10  
Year to date precipitation 32.84  
Snow  
Snow 0.00 in 0.00 in - ()
Month to date snowfall 0.0  
Since 1 July snowfall 0.8  
Since 1 September snowfall 0.8  
Snow Depth -    
Sea Level Pressure  
Sea Level Pressure 29.50 in    
Wind  
Wind Speed 17 mph (SW)    
Max Wind Speed 25 mph    
Max Gust Speed 36 mph    
Visibility 10 miles    
Events Rain    
T = Trace of Precipitation, MM = Missing Value Source: NWS Daily Summary

Daily Weather History Graph

Daily Weather History Graph

Search for Another Location

Airport:

Trip Planner

Search our weather history database for the weather conditions in past years. The results will help you decide how hot, cold, wet, or windy it might be!

Date:

Astronomy

Nov. 01, 2013 Rise Set
Actual Time 7:55 AM EDT 6:16 PM EDT
Civil Twilight 7:26 AM EDT 6:45 PM EDT
Nautical Twilight 6:53 AM EDT 7:18 PM EDT
Astronomical Twilight 6:21 AM EDT 7:50 PM EDT
Moon 5:44 AM EDT (11/1) 5:10 PM EDT (11/1)
Length of Visible Light 11h 19m
Length of Day
10h 21m
Waning Crescent, 4% of the Moon is Illuminated
Nov 1
Waning Crescent
Nov 3
New
Nov 10
First Quarter
Nov 17
Full
Nov 25
Last Quarter

Hourly Weather History & Observations

Time (EDT) Temp. Dew Point Humidity Pressure Visibility Wind Dir Wind Speed Gust Speed Precip Events Conditions
12:53 AM 60.1 °F 55.0 °F 83% 29.30 in 5.0 mi South 21.9 mph 33.4 mph 0.00 in Rain Light Rain
1:53 AM 62.1 °F 55.0 °F 78% 29.25 in 10.0 mi South 18.4 mph 27.6 mph 0.02 in   Overcast
2:53 AM 61.0 °F 55.9 °F 83% 29.28 in 10.0 mi SW 24.2 mph 35.7 mph 0.04 in Rain Light Rain
3:53 AM 59.0 °F 53.1 °F 81% 29.30 in 10.0 mi SW 15.0 mph - 0.05 in   Overcast
4:24 AM 57.2 °F 53.6 °F 88% 29.31 in 10.0 mi SW 13.8 mph 20.7 mph 0.01 in   Mostly Cloudy
4:32 AM 59.0 °F 53.6 °F 82% 29.31 in 10.0 mi SW 13.8 mph 27.6 mph 0.01 in   Mostly Cloudy
4:53 AM 59.0 °F 52.0 °F 78% 29.31 in 10.0 mi SW 15.0 mph 25.3 mph 0.01 in   Overcast
5:25 AM 57.2 °F 51.8 °F 82% 29.33 in 10.0 mi SW 17.3 mph 23.0 mph N/A   Overcast
5:34 AM 57.2 °F 51.8 °F 82% 29.34 in 10.0 mi SW 18.4 mph 26.5 mph N/A   Overcast
5:53 AM 57.9 °F 50.0 °F 75% 29.35 in 10.0 mi SW 19.6 mph 27.6 mph N/A   Overcast
6:09 AM 57.2 °F 48.2 °F 72% 29.37 in 10.0 mi SW 20.7 mph 32.2 mph N/A   Mostly Cloudy
6:53 AM 55.9 °F 46.0 °F 69% 29.42 in 10.0 mi WSW 25.3 mph 33.4 mph N/A   Mostly Cloudy
7:53 AM 54.0 °F 42.1 °F 64% 29.47 in 10.0 mi WSW 19.6 mph 29.9 mph N/A   Clear
8:53 AM 52.0 °F 41.0 °F 66% 29.51 in 10.0 mi WSW 20.7 mph 29.9 mph N/A   Partly Cloudy
9:53 AM 52.0 °F 39.9 °F 63% 29.55 in 10.0 mi WSW 24.2 mph 34.5 mph N/A   Overcast
10:53 AM 52.0 °F 39.9 °F 63% 29.58 in 10.0 mi WSW 21.9 mph 27.6 mph N/A   Overcast
11:53 AM 50.0 °F 37.9 °F 63% 29.62 in 10.0 mi West 19.6 mph 28.8 mph N/A   Overcast
12:53 PM 51.1 °F 39.0 °F 63% 29.63 in 10.0 mi WSW 15.0 mph 20.7 mph N/A   Overcast
2:53 PM 53.1 °F 39.9 °F 61% 29.62 in 10.0 mi WSW 11.5 mph 20.7 mph N/A   Overcast
3:53 PM 53.1 °F 39.9 °F 61% 29.63 in 10.0 mi WSW 11.5 mph - N/A   Overcast
4:53 PM 52.0 °F 41.0 °F 66% 29.64 in 10.0 mi West 8.1 mph - N/A   Overcast
5:53 PM 52.0 °F 39.9 °F 63% 29.65 in 10.0 mi WSW 8.1 mph - N/A   Overcast
6:53 PM 52.0 °F 39.9 °F 63% 29.66 in 10.0 mi WSW 8.1 mph - N/A   Overcast
7:53 PM 51.1 °F 39.9 °F 66% 29.69 in 10.0 mi SSW 5.8 mph - N/A   Overcast
8:53 PM 51.1 °F 39.0 °F 63% 29.69 in 10.0 mi WSW 6.9 mph - N/A   Overcast
9:53 PM 50.0 °F 39.9 °F 68% 29.69 in 10.0 mi South 3.5 mph - N/A   Overcast
10:53 PM 48.0 °F 39.9 °F 74% 29.70 in 10.0 mi SW 4.6 mph - N/A   Mostly Cloudy
11:53 PM 48.9 °F 39.9 °F 71% 29.69 in 10.0 mi WSW 4.6 mph - N/A   Overcast